Location: *
(47.3405°S, 178.2406°E)
Time: 09:27:31
(UTC+00:00)

Daily predictions for brighter satellites

Satellite Brightness Start Highest point End
(mag) Time Altitude Azimuth Time Altitude Azimuth Time Altitude Azimuth
SL-24 R/B 4.2 12:04:01 52° NW 12:04:42 59° W 12:09:03 10° SSW
Cosmos 2208 Rocket 4.4 12:00:18 10° SSW 12:05:39 63° ESE 12:08:08 32° NE
Meteor 2-5 Rocket 4.0 12:05:53 10° S 12:11:40 63° ESE 12:14:11 33° NE
Cosmos 1674 Rocket 4.4 12:08:52 10° S 12:13:12 44° ESE 12:14:39 33° ENE
ADEOS II 3.8 12:12:07 11° ENE 12:16:18 28° ESE 12:20:46 10° S
Cosmos 1697 Rocket 2.6 12:10:40 10° SSW 12:16:25 79° WNW 12:18:30 41° NNE
Spot 4 3.9 12:12:47 10° SSE 12:17:41 73° ENE 12:18:58 48° N
Cosmos 1908 3.0 12:20:56 71° NE 12:21:11 75° E 12:24:59 10° SSE
Cosmos 1703 4.3 12:19:34 10° S 12:23:14 38° ESE 12:24:12 32° ENE
MOS 1 Rocket 4.3 12:18:36 10° S 12:23:52 49° WSW 12:26:10 30° NW
Cosmos 2242 Rocket 4.5 12:23:07 10° SSW 12:27:21 37° W 12:28:10 34° WNW
USA 81 4.1 12:25:49 42° NNE 12:27:37 73° E 12:32:57 10° S
Cosmos 1821 Rocket 4.0 12:22:06 10° S 12:28:26 79° W 12:31:07 37° N
GP-B 3.3 12:24:37 10° S 12:29:05 61° W 12:30:02 48° NW
Resurs 1-4 Rocket 2.7 12:26:24 26° NE 12:29:14 54° ESE 12:34:26 10° S
ARGOS Delta rocket 3.8 12:24:52 10° SSE 12:29:29 65° E 12:30:32 48° NNE
IDEFIX/ARIANE 42P 3.2 12:26:51 25° NE 12:29:41 52° ESE 12:34:52 10° S
Cosmos 1470 3.3 12:29:47 42° WNW 12:30:20 45° WSW 12:34:09 10° S
Cosmos 1570 Rocket 4.0 12:25:19 10° SSW 12:30:38 66° WNW 12:32:09 44° N
ATLAS 3B R/B 3.0 12:28:27 10° SW 12:34:46 59° SE 12:40:58 10° NE
Meteor 1-22 Rocket 4.0 12:35:05 43° NNW 12:36:54 88° W 12:42:19 10° S
SL-16 R/B 4.2 12:33:02 10° S 12:37:48 26° SE 12:42:32 10° ENE
Meteor 1-15 Rocket 4.3 12:39:22 38° NNW 12:41:39 75° WSW 12:47:25 10° S
CZ-2D R/B 2.5 12:39:11 28° NE 12:42:07 67° ESE 12:47:39 10° S
Lacrosse 5 rocket 2.8 12:39:17 10° SW 12:42:38 33° SSE 12:46:01 10° E
H-2A R/B 3.9 12:42:20 43° WNW 12:42:47 45° W 12:46:51 10° SSW
COSMOS 2406 3.6 12:41:45 35° NNE 12:43:47 52° ENE 12:49:24 10° SE
Cosmos 1980 Rocket 2.2 12:39:56 10° SSW 12:45:41 88° ESE 12:48:42 29° NNE
ATLAS CENTAUR R/B 3.2 12:42:53 10° SSW 12:47:00 34° SE 12:51:02 10° ENE
Cosmos 2369 3.7 12:42:22 10° SSW 12:48:07 80° ESE 12:51:33 25° NNE
Cosmos 1340 2.9 12:49:31 48° ENE 12:49:55 51° E 12:53:27 10° SSE
ATLAS 5 CENTAUR R/B 4.5 12:43:41 10° SW 12:50:04 85° NW 13:20:43 10° NE
Cosmos 1378 Rocket 3.6 12:47:33 10° SSW 12:51:57 67° W 12:52:54 50° NNW
Cosmos 1908 Rocket 3.9 12:52:20 40° NNE 12:53:41 59° E 12:58:09 10° SSE
Cosmos 44 Rocket 4.4 12:53:58 26° NE 12:54:56 28° ENE 12:58:55 10° ESE
Cosmos 1733 Rocket 3.7 12:54:41 37° WNW 12:55:49 46° WSW 13:00:06 10° S
USA 306 4.1 12:57:19 21° ENE 12:57:19 21° ENE 12:59:21 10° E
Cosmos 1300 2.9 12:57:13 50° NE 12:57:50 59° E 13:01:33 10° SSE
Cosmos 1833 Rocket 3.6 12:58:36 21° WNW 13:01:56 42° SW 13:07:19 10° SSE
Cosmos 1408 2.1 13:01:03 10° S 13:04:23 84° E 13:04:36 76° NNE
Cosmos 158 Rocket 3.7 13:00:57 10° SSW 13:05:55 78° WNW 13:07:53 37° N
Meteor 2-10 Rocket 3.8 13:03:32 34° N 13:06:08 78° E 13:12:02 10° SSE
Cosmos 2221 Rocket 3.9 13:01:42 10° SSW 13:06:11 53° W 13:07:18 41° NW
ATLAS 2AS CENTAUR R/B 2.8 13:02:10 24° NW 13:06:23 70° SW 13:13:24 10° SE
Cosmos 1356 Rocket 3.9 13:07:13 10° SSW 13:11:18 44° W 13:12:03 40° NW
ISS -1.8 13:17:10 19° ENE 13:17:10 19° ENE 13:19:07 10° E
Cosmos 1486 Rocket 4.2 13:14:50 34° NW 13:17:11 70° WSW 13:22:35 10° SSE
Cosmos 1758 3.8 13:16:23 39° WNW 13:17:20 48° WSW 13:21:17 10° S
Cosmos 1633 2.3 13:14:56 10° S 13:18:01 64° E 13:18:24 56° ENE
Meteor 1-24 Rocket 4.4 13:16:21 10° SSW 13:21:25 38° W 13:23:15 29° NW
Cosmos 2278 4.0 13:18:25 10° SSW 13:24:10 70° ESE 13:29:52 10° NE
NPP 3.9 13:22:23 33° NNW 13:24:33 52° W 13:29:55 10° SSW
Cosmos 2082 Rocket 2.3 13:22:45 31° NW 13:25:35 76° WSW 13:31:23 10° SSE
Helios 1A Rocket 2.8 13:24:18 10° S 13:28:19 76° WSW 13:29:33 42° NNW
Cosmos 1300 Rocket 4.1 13:27:30 28° NNE 13:29:40 54° E 13:34:05 10° SSE
Cosmos 2098 Rocket 2.3 13:30:36 52° W 13:30:45 53° W 13:33:49 10° S
Cosmos 1400 Rocket 4.3 13:29:12 10° SW 13:32:21 22° W 13:32:46 21° W
USA 308 2.4 13:33:47 41° SSW 13:33:49 41° SSW 13:36:19 10° SE
CZ-2C R/B 4.0 13:28:32 10° NE 13:33:57 53° ESE 13:39:37 10° S
Cosmos 1025 Rocket 3.0 13:33:40 10° SSW 13:38:09 72° W 13:40:04 33° N
Cosmos 1777 Rocket 4.0 13:36:00 31° NNW 13:38:35 86° ENE 13:43:53 10° SSE
ALOS 2 4.2 13:35:55 10° S 13:39:36 26° WSW 13:41:37 19° WNW
ALOS 2.9 13:36:56 12° NNE 13:41:08 55° ESE 13:45:46 10° S
Cosmos 1867 3.7 13:37:30 10° SW 13:42:45 52° WNW 13:46:02 22° N
SJ 16-02 3.6 13:40:05 11° W 13:42:48 17° SW 13:45:43 10° SSW
Cosmos 2360 Rocket 3.8 13:37:52 10° SSW 13:43:07 36° SE 13:48:20 10° ENE
NOSS 3-1 (A) 3.2 13:38:30 10° SW 13:45:06 78° NW 13:50:27 10° NNE
NOSS 3-1 (C) 3.7 13:39:45 10° SW 13:45:40 41° WNW 13:48:04 26° NNW
Genesis I 3.1 13:42:08 10° SW 13:45:48 58° WNW 13:47:08 34° N
USA 215 4.2 13:44:50 24° NW 13:45:58 25° NW 13:51:17 10° WSW
Cosmos 1727 Rocket 4.4 13:42:50 17° NNE 13:47:35 59° E 13:53:46 10° SSE
Cosmos 1953 2.2 13:46:52 36° NNW 13:48:23 75° W 13:52:25 10° S
MSX 4.4 13:47:45 26° NNW 13:50:28 42° W 13:55:58 10° SSW
CZ-4 R/B 3.9 13:46:43 15° NNE 13:50:33 75° ESE 13:55:16 10° SSW
Thor Agena Rocket 3.9 13:48:03 10° NNE 13:53:08 66° ESE 13:58:20 10° S
Cosmos 1503 Rocket 4.4 13:52:19 25° NW 13:55:11 53° WSW 14:00:20 10° SSE
ADEOS II 2.4 13:53:01 26° NNW 13:55:41 48° W 14:00:51 10° SSW
Meteor 1-16 Rocket 4.4 13:54:13 26° NW 13:57:18 59° WSW 14:02:56 10° S
USA 305 2.8 13:58:56 25° ENE 13:58:56 25° ENE 14:00:09 10° ESE
Cosmos 304 Rocket 4.3 13:55:33 21° N 13:58:32 51° ENE 14:03:16 10° SSE
Cosmos 1605 Rocket 4.1 13:52:57 10° SSW 13:59:00 60° W 14:03:03 21° NNW
USA 281 4.2 13:53:10 10° NE 13:59:26 49° SE 14:05:46 10° SSW
Cosmos 1328 3.7 13:56:07 10° SSW 14:00:04 66° W 14:02:01 28° N
Cosmos 1315 Rocket 3.2 13:56:11 10° SSW 14:00:05 47° W 14:01:40 30° NNW
Cosmos 2322 Rocket 2.8 13:54:28 10° SSW 14:00:06 60° ESE 14:05:40 10° NE
USA 307 1.8 14:04:20 47° NE 14:04:20 47° NE 14:06:28 10° ESE
Cosmos 1782 Rocket 4.0 14:02:06 27° NW 14:04:19 50° WSW 14:08:46 10° S
Meteor 1-21 Rocket 4.2 13:58:53 10° SSW 14:04:32 67° W 14:08:38 18° N
Cosmos 1354 Rocket 4.4 14:03:28 23° NW 14:06:36 55° WSW 14:11:50 10° SSE
Meteor 1-4 Rocket 2.6 14:04:28 10° S 14:07:42 62° ESE 14:10:04 17° NNE
Cosmos 2333 Rocket 3.4 14:02:25 10° SSW 14:07:52 44° SE 14:13:18 10° NE
Cosmos 2173 Rocket 4.4 14:02:05 10° S 14:08:14 63° ESE 14:14:18 10° NNE
Resurs 1-4 Rocket 3.4 14:07:27 20° WNW 14:09:21 24° W 14:13:35 10° SW
IDEFIX/ARIANE 42P 3.9 14:07:36 20° WNW 14:09:31 24° W 14:13:48 10° SW
Cosmos 1892 3.1 14:07:55 10° SSW 14:11:25 41° W 14:12:47 28° NW
Okean 2 Rocket 3.9 14:13:02 13° NNE 14:16:55 49° E 14:21:17 10° SSE
Envisat 3.8 14:12:21 10° NE 14:17:18 52° ESE 14:22:18 10° S
Geosat 4.3 14:12:49 10° NE 14:17:50 70° ESE 14:22:54 10° SSW
Cosmos 371 Rocket 3.3 14:15:44 22° NNW 14:18:55 83° WSW 14:23:54 10° SSE
Cosmos 2100 Rocket 4.1 14:12:55 10° S 14:19:11 79° E 14:25:23 10° NNE
Cosmos 1825 2.5 14:16:14 10° SSW 14:19:42 43° W 14:21:22 25° NNW
Lacrosse 5 rocket 1.2 14:17:45 10° WSW 14:21:18 47° NW 14:24:54 10° NNE
SL-16 R/B 2.2 14:16:42 10° SSW 14:22:24 66° WNW 14:28:02 10° NNE
CZ-2D R/B 3.7 14:20:28 16° WNW 14:22:37 20° W 14:26:40 10° SW
Cosmos 1975 Rocket 3.7 14:19:10 10° SSW 14:23:14 38° W 14:25:39 21° NNW
Cosmos 990 Rocket 4.1 14:20:14 19° NNW 14:24:05 78° ENE 14:29:24 10° SSE
ATLAS 3B R/B 3.2 14:19:34 10° SW 14:25:04 32° WNW 14:29:50 13° N
ATLAS CENTAUR R/B 2.0 14:20:57 10° SW 14:25:09 40° WNW 14:28:57 11° N
Cosmos 1898 Rocket 4.5 14:21:01 11° N 14:25:45 43° ENE 14:30:47 10° SE
METEOR-M 4.3 14:22:08 10° NNE 14:27:30 81° ESE 14:32:58 10° SSW
COSMOS 2406 4.5 14:23:47 12° WNW 14:28:21 32° SW 14:33:32 10° SSE
Cosmos 1980 Rocket 3.8 14:25:38 10° WSW 14:28:51 16° W 14:30:24 14° WNW
YAOGAN 6 4.0 14:26:18 10° NE 14:29:23 35° ESE 14:32:33 10° S
USA 306 2.7 14:29:08 17° WNW 14:31:37 62° SSW 14:35:20 10° SE
Cosmos 1455 2.6 14:32:57 21° NW 14:35:05 43° WSW 14:38:39 10° S
IRS-1D 3.6 14:30:37 10° NNE 14:35:54 87° WNW 14:41:21 10° SSW
Cosmos 44 Rocket 3.9 14:32:37 15° WNW 14:36:13 45° SW 14:40:43 10° SSE
Okean 1 Rocket 4.1 14:32:18 10° NNE 14:36:36 46° E 14:40:57 10° SSE
Cosmos 1725 Rocket 4.5 14:31:06 10° S 14:37:29 65° ESE 14:43:48 10° NNE
Cosmos 1680 Rocket 4.5 14:35:12 10° SSW 14:40:27 52° ESE 14:45:40 10° NE
Cosmos 1536 Rocket 3.6 14:37:39 10° S 14:42:15 87° W 14:46:45 10° N
Cosmos 1242 Rocket 3.8 14:40:32 10° S 14:43:39 37° ESE 14:46:44 10° NE
COBE Rocket 3.7 14:45:41 10° N 14:50:21 76° WNW 14:55:06 10° SSW
MOZ.5/SAFIR/RUBIN 5/SL-8 3.8 14:47:56 10° S 14:52:40 70° WSW 14:57:00 12° NNW
ISS -3.7 14:50:03 14° WNW 14:52:55 82° SSW 14:56:22 10° ESE
Cosmos 2151 Rocket 3.7 14:50:57 12° NNW 14:55:03 67° W 14:59:40 10° S
Cosmos 372 Rocket 4.4 14:52:59 10° N 14:58:01 59° ENE 15:03:06 10° SSE
ATLAS 2AS CENTAUR R/B 4.4 14:52:54 10° WSW 14:58:35 27° SSW 15:04:30 10° SE
SL-16 R/B 3.8 14:55:33 10° SSE 15:01:21 39° E 15:07:04 10° NNE
Cosmos 1459 Rocket 4.2 14:56:06 10° SSW 15:02:24 58° W 15:08:38 10° N
DNEPR-1 R/B 4.1 14:58:45 12° WNW 15:02:40 47° SW 15:06:41 10° SSE
IRIDIUM 104 4.5 14:58:53 10° S 15:04:14 84° E 15:09:31 10° N
Cosmos 1441 Rocket 3.2 15:00:31 10° NNW 15:04:24 79° WSW 15:08:19 10° S
BREEZE-M DEB (TANK) 1.8 15:03:54 13° W 15:05:09 51° N 15:09:15 10° ENE
Cosmos 1346 Rocket 3.7 15:01:45 10° N 15:05:29 47° E 15:09:18 10° SSE
Timation 1 Rocket 4.4 15:02:11 10° NNW 15:08:11 88° ENE 15:14:15 10° SSE
USA 308 4.3 15:06:18 10° SW 15:08:21 20° S 15:10:38 10° SE
Cosmos 2082 Rocket 4.2 15:06:52 10° W 15:10:42 18° SW 15:14:34 10° S
CZ-2C R/B 2.8 15:06:20 10° N 15:11:23 51° W 15:16:24 10° SSW
Tiangong -0.3 15:10:19 11° NNW 15:12:26 19° NNE 15:14:47 10° ENE
IRIDIUM 114 4.4 15:08:03 10° S 15:13:24 82° W 15:18:39 10° N
CZ-2C R/B 4.3 15:09:24 10° NNW 15:14:04 27° W 15:18:55 10° SW
ALOS 3.8 15:15:24 10° NW 15:18:44 19° W 15:22:07 10° SW
IRIDIUM 103 4.4 15:17:17 10° S 15:22:34 68° W 15:27:47 10° N
USA 229 DEB 3.9 15:17:12 10° SW 15:23:23 42° WNW 15:29:05 10° N
USA 229 3.9 15:17:15 10° SW 15:23:27 43° WNW 15:29:10 10° N
Meteor 1-28 Rocket 3.5 15:21:27 10° SSE 15:25:10 66° ENE 15:28:48 10° N
Cosmos 1455 Rocket 3.6 15:21:27 10° N 15:25:45 60° E 15:30:05 10° SSE
Cosmos 2360 Rocket 2.6 15:21:50 10° SW 15:27:11 43° WNW 15:32:30 10° N
ARIANE 5 R/B 3.4 15:25:08 10° NNE 15:30:16 58° ESE 15:35:24 10° S
CBERS-1 4.1 15:26:21 10° N 15:31:26 62° WNW 15:36:35 10° SSW
Cosmos 2016 Rocket 4.3 15:25:55 10° SSW 15:32:10 53° W 15:38:19 10° NNW
